TimePST,TemperatureF,Dew PointF,Humidity,Sea Level PressureIn,VisibilityMPH,Wind Direction,Wind SpeedMPH,Gust SpeedMPH,PrecipitationIn,Events,Conditions,WindDirDegrees,DateUTC
12:15 AM,19.4,12.2,74,30.36,10.0,Calm,Calm,-,N/A,,Clear,0,2012-11-12 08:15:00
12:35 AM,17.6,12.2,79,30.36,10.0,ESE,3.5,-,N/A,,Clear,120,2012-11-12 08:35:00
12:55 AM,17.6,10.4,73,30.36,10.0,Calm,Calm,-,N/A,,Scattered Clouds,0,2012-11-12 08:55:00
1:15 AM,19.4,12.2,74,30.35,10.0,Calm,Calm,-,N/A,,Overcast,0,2012-11-12 09:15:00
1:35 AM,19.4,12.2,74,30.35,10.0,Calm,Calm,-,N/A,,Mostly Cloudy,0,2012-11-12 09:35:00
2:15 AM,23.0,14.0,68,30.35,10.0,Calm,Calm,-,N/A,,Overcast,0,2012-11-12 10:15:00
2:35 AM,19.4,14.0,80,30.35,10.0,WNW,3.5,-,N/A,,Overcast,290,2012-11-12 10:35:00
2:55 AM,21.2,14.0,74,30.35,10.0,WNW,3.5,-,N/A,,Mostly Cloudy,290,2012-11-12 10:55:00
3:15 AM,19.4,14.0,80,30.35,10.0,NW,3.5,-,N/A,,Partly Cloudy,320,2012-11-12 11:15:00
3:35 AM,19.4,14.0,80,30.35,10.0,Calm,Calm,-,N/A,,Clear,0,2012-11-12 11:35:00
3:55 AM,21.2,14.0,74,30.35,10.0,East,4.6,-,N/A,,Clear,100,2012-11-12 11:55:00
4:15 AM,23.0,15.8,74,30.35,10.0,Calm,Calm,-,N/A,,Mostly Cloudy,0,2012-11-12 12:15:00
4:35 AM,23.0,15.8,74,30.35,10.0,Calm,Calm,-,N/A,,Overcast,0,2012-11-12 12:35:00
4:55 AM,24.8,15.8,69,30.34,10.0,Calm,Calm,-,N/A,,Overcast,0,2012-11-12 12:55:00
5:15 AM,24.8,17.6,74,30.35,10.0,Calm,Calm,-,N/A,,Overcast,0,2012-11-12 13:15:00
5:35 AM,24.8,17.6,74,30.35,10.0,West,3.5,-,N/A,,Overcast,260,2012-11-12 13:35:00
5:55 AM,24.8,17.6,74,30.35,10.0,Calm,Calm,-,N/A,,Overcast,0,2012-11-12 13:55:00
6:15 AM,24.8,17.6,74,30.34,10.0,Calm,Calm,-,N/A,,Overcast,0,2012-11-12 14:15:00
6:35 AM,24.8,17.6,74,30.35,10.0,Calm,Calm,-,N/A,,Overcast,0,2012-11-12 14:35:00
6:55 AM,24.8,17.6,74,30.35,10.0,Calm,Calm,-,N/A,,Overcast,0,2012-11-12 14:55:00
7:15 AM,24.8,17.6,74,30.36,10.0,Calm,Calm,-,N/A,,Overcast,0,2012-11-12 15:15:00
7:35 AM,24.8,17.6,74,30.37,10.0,West,4.6,-,N/A,,Overcast,260,2012-11-12 15:35:00
7:55 AM,26.6,19.4,74,30.37,10.0,WNW,4.6,-,N/A,,Overcast,290,2012-11-12 15:55:00
8:15 AM,26.6,19.4,74,30.36,10.0,Calm,Calm,-,N/A,,Overcast,0,2012-11-12 16:15:00
8:35 AM,28.4,19.4,69,30.36,10.0,Calm,Calm,-,N/A,,Overcast,0,2012-11-12 16:35:00
8:55 AM,28.4,19.4,69,30.36,10.0,Calm,Calm,-,N/A,,Mostly Cloudy,0,2012-11-12 16:55:00
9:15 AM,32.0,19.4,60,30.36,10.0,Calm,Calm,-,N/A,,Clear,0,2012-11-12 17:15:00
9:35 AM,35.6,19.4,52,30.36,10.0,Calm,Calm,-,N/A,,Clear,0,2012-11-12 17:35:00
9:55 AM,37.4,19.4,48,30.35,10.0,Calm,Calm,-,N/A,,Clear,0,2012-11-12 17:55:00
10:15 AM,39.2,19.4,45,30.35,10.0,Calm,Calm,-,N/A,,Clear,0,2012-11-12 18:15:00
10:35 AM,39.2,19.4,45,30.35,10.0,Calm,Calm,-,N/A,,Scattered Clouds,0,2012-11-12 18:35:00
10:55 AM,41.0,19.4,42,30.35,10.0,Calm,Calm,-,N/A,,Mostly Cloudy,0,2012-11-12 18:55:00
11:15 AM,44.6,19.4,37,30.33,10.0,SSW,3.5,-,N/A,,Overcast,210,2012-11-12 19:15:00
11:35 AM,44.6,19.4,37,30.32,10.0,SSW,3.5,-,N/A,,Overcast,200,2012-11-12 19:35:00
11:55 AM,46.4,19.4,34,30.32,10.0,Calm,Calm,-,N/A,,Overcast,0,2012-11-12 19:55:00
12:15 PM,48.2,19.4,32,30.31,10.0,ESE,3.5,-,N/A,,Mostly Cloudy,110,2012-11-12 20:15:00
12:35 PM,50.0,19.4,30,30.30,10.0,Calm,Calm,-,N/A,,Mostly Cloudy,0,2012-11-12 20:35:00
12:55 PM,50.0,17.6,28,30.30,10.0,Calm,Calm,-,N/A,,Mostly Cloudy,0,2012-11-12 20:55:00
1:15 PM,50.0,19.4,30,30.30,10.0,SW,4.6,-,N/A,,Mostly Cloudy,230,2012-11-12 21:15:00
1:35 PM,51.8,19.4,28,30.29,10.0,Calm,Calm,-,N/A,,Mostly Cloudy,0,2012-11-12 21:35:00
1:55 PM,53.6,19.4,26,30.29,10.0,West,3.5,-,N/A,,Partly Cloudy,280,2012-11-12 21:55:00
2:15 PM,55.4,19.4,25,30.29,10.0,NNW,4.6,-,N/A,,Clear,340,2012-11-12 22:15:00
2:35 PM,53.6,19.4,26,30.28,10.0,ENE,6.9,-,N/A,,Clear,60,2012-11-12 22:35:00
2:55 PM,53.6,17.6,24,30.28,10.0,East,6.9,-,N/A,,Clear,90,2012-11-12 22:55:00
3:10 PM,51.8,17.6,26,30.28,10.0,East,8.1,-,N/A,,Clear,90,2012-11-12 23:10:00
3:30 PM,50.0,17.6,28,30.28,10.0,East,5.8,-,N/A,,Clear,80,2012-11-12 23:30:00
3:50 PM,50.0,17.6,28,30.28,10.0,East,5.8,-,N/A,,Clear,80,2012-11-12 23:50:00
4:10 PM,48.2,17.6,30,30.28,10.0,East,8.1,-,N/A,,Clear,80,2012-11-13 00:10:00
4:30 PM,46.4,17.6,32,30.28,10.0,East,8.1,-,N/A,,Clear,90,2012-11-13 00:30:00
4:50 PM,44.6,17.6,34,30.28,10.0,ESE,6.9,-,N/A,,Scattered Clouds,110,2012-11-13 00:50:00
5:30 PM,39.2,17.6,42,30.29,10.0,East,6.9,-,N/A,,Clear,100,2012-11-13 01:30:00
5:50 PM,39.2,19.4,45,30.29,10.0,ESE,6.9,-,N/A,,Clear,110,2012-11-13 01:50:00
6:10 PM,37.4,19.4,48,30.31,10.0,ESE,4.6,-,N/A,,Clear,120,2012-11-13 02:10:00
6:30 PM,33.8,15.8,48,30.31,10.0,Calm,Calm,-,N/A,,Clear,0,2012-11-13 02:30:00
6:50 PM,33.8,17.6,52,30.31,10.0,Calm,Calm,-,N/A,,Clear,0,2012-11-13 02:50:00
7:10 PM,32.0,15.8,51,30.31,10.0,NNW,3.5,-,N/A,,Clear,340,2012-11-13 03:10:00
7:30 PM,32.0,17.6,55,30.32,10.0,NNE,3.5,-,N/A,,Clear,20,2012-11-13 03:30:00
7:50 PM,32.0,17.6,55,30.32,10.0,North,3.5,-,N/A,,Clear,350,2012-11-13 03:50:00
8:10 PM,30.2,15.8,55,30.33,10.0,NNW,5.8,-,N/A,,Clear,340,2012-11-13 04:10:00
8:30 PM,30.2,17.6,60,30.33,10.0,NNW,4.6,-,N/A,,Clear,340,2012-11-13 04:30:00
8:50 PM,28.4,17.6,64,30.33,10.0,North,5.8,-,N/A,,Clear,360,2012-11-13 04:50:00
9:10 PM,32.0,17.6,55,30.33,10.0,Calm,Calm,-,N/A,,Clear,0,2012-11-13 05:10:00
9:30 PM,26.6,15.8,64,30.34,10.0,Calm,Calm,-,N/A,,Clear,0,2012-11-13 05:30:00
9:50 PM,32.0,19.4,60,30.33,10.0,Calm,Calm,-,N/A,,Clear,0,2012-11-13 05:50:00
10:10 PM,28.4,17.6,64,30.33,10.0,Calm,Calm,-,N/A,,Clear,0,2012-11-13 06:10:00
10:30 PM,26.6,17.6,69,30.33,10.0,NNW,3.5,-,N/A,,Clear,330,2012-11-13 06:30:00
10:50 PM,26.6,15.8,64,30.34,10.0,North,4.6,-,N/A,,Clear,360,2012-11-13 06:50:00
11:10 PM,26.6,17.6,69,30.34,10.0,North,4.6,-,N/A,,Clear,350,2012-11-13 07:10:00
11:30 PM,28.4,19.4,69,30.34,10.0,Calm,Calm,-,N/A,,Clear,0,2012-11-13 07:30:00
11:50 PM,26.6,17.6,69,30.34,10.0,Calm,Calm,-,N/A,,Clear,0,2012-11-13 07:50:00